map of MLX home
Great Circle Mapper logo
MLX - Airport
Location
City:  Malatya, Turkey
Name:Erhac
ICAO / IATA:LTAT / MLX

Details
Type:Airport (Aerodrome, Airfield)
Use:Public/Civil, Military
Latitude:3826'07"N (38.435347)
Longitude:3805'28"E (38.091006)
Datum:WGS 1984
Elevation:2828 ft (862 m)
Runways:1
Longest:10990 × 148 ft (3350 × 45 m), paved

Time
Time Zone:UTC+2 (DST+3)
Local Time:

Weather
METAR:LTAT 231920Z 26003KT 230V300 9999 FEW040 SCT100 11/07 Q1019 NOSIG
TAF:LTAT 231040Z 2312/2412 VRB02KT 9999 FEW040 BKN100
TEMPO 2315/2319 21013KT
BECMG 2317/2319 CAVOK
BECMG 2404/2406 FEW040 BKN200

Related Locations
Nearby:
Farthest:NTAV: 11373 mi / 18303 km
Raivavae, Tubuai Islands, Austral Islands, PF

Find:

   beyond  
but within

Other Information
Maps:
NOTAMs:
Links:
Sources:

  
flag of Turkey   

Sectional Chart

Flight Planning
at skyvector.com

Satellite Image

Google Maps Satellite View

 

Copyright © 2004-2014 Karl L. Swartz. All rights reserved.
The Great Circle Mapper name and logo are trademarks of the Great Circle Mapper.
All other trademarks mentioned herein belong to their respective owners.
Please see credits for attibutions and further copyright information.

  Follow gcmap on Facebook Follow gcmap on Twitter

hCard Microformat

Geo Microformat